TimeCDT,TemperatureF,Dew PointF,Humidity,Sea Level PressureIn,VisibilityMPH,Wind Direction,Wind SpeedMPH,Gust SpeedMPH,PrecipitationIn,Events,Conditions,WindDirDegrees,DateUTC
12:13 AM,48.2,44.6,87,30.18,10.0,Calm,Calm,-,N/A,,Clear,0,2012-09-01 05:13:00
12:32 AM,48.2,44.6,87,30.19,10.0,Calm,Calm,-,N/A,,Clear,0,2012-09-01 05:32:00
12:53 AM,48.2,44.6,87,30.19,10.0,Calm,Calm,-,N/A,,Clear,0,2012-09-01 05:53:00
1:13 AM,48.2,42.8,82,30.18,10.0,Calm,Calm,-,N/A,,Clear,0,2012-09-01 06:13:00
1:32 AM,48.2,44.6,87,30.19,10.0,Calm,Calm,-,N/A,,Clear,0,2012-09-01 06:32:00
1:53 AM,46.4,42.8,87,30.19,10.0,Calm,Calm,-,N/A,,Clear,0,2012-09-01 06:53:00
2:13 AM,46.4,42.8,87,30.19,10.0,Calm,Calm,-,N/A,,Clear,0,2012-09-01 07:13:00
2:32 AM,44.6,42.8,93,30.19,10.0,Calm,Calm,-,N/A,,Clear,0,2012-09-01 07:32:00
2:53 AM,44.6,44.6,100,30.20,10.0,Calm,Calm,-,N/A,,Clear,0,2012-09-01 07:53:00
3:13 AM,44.6,42.8,93,30.21,10.0,Calm,Calm,-,N/A,,Clear,0,2012-09-01 08:13:00
3:32 AM,44.6,42.8,93,30.21,10.0,Calm,Calm,-,N/A,,Clear,0,2012-09-01 08:32:00
3:53 AM,44.6,42.8,93,30.21,10.0,Calm,Calm,-,N/A,,Clear,0,2012-09-01 08:53:00
4:13 AM,44.6,41.0,87,30.21,10.0,Calm,Calm,-,N/A,,Clear,0,2012-09-01 09:13:00
4:32 AM,42.8,41.0,93,30.21,10.0,Calm,Calm,-,N/A,,Clear,0,2012-09-01 09:32:00
4:53 AM,42.8,41.0,93,30.22,10.0,Calm,Calm,-,N/A,,Clear,0,2012-09-01 09:53:00
5:13 AM,42.8,41.0,93,30.22,10.0,Calm,Calm,-,N/A,,Clear,0,2012-09-01 10:13:00
5:32 AM,42.8,39.2,87,30.22,10.0,Calm,Calm,-,N/A,,Clear,0,2012-09-01 10:32:00
5:53 AM,42.8,39.2,87,30.22,10.0,Calm,Calm,-,N/A,,Clear,0,2012-09-01 10:53:00
6:13 AM,42.8,39.2,87,30.22,10.0,Calm,Calm,-,N/A,,Clear,0,2012-09-01 11:13:00
6:32 AM,41.0,39.2,93,30.23,10.0,Calm,Calm,-,N/A,,Clear,0,2012-09-01 11:32:00
6:53 AM,42.8,39.2,87,30.23,10.0,Calm,Calm,-,N/A,,Clear,0,2012-09-01 11:53:00
7:13 AM,42.8,39.2,87,30.23,10.0,Calm,Calm,-,N/A,,Clear,0,2012-09-01 12:13:00
7:33 AM,46.4,42.8,87,30.23,10.0,Calm,Calm,-,N/A,,Clear,0,2012-09-01 12:33:00
7:53 AM,48.2,44.6,87,30.23,10.0,Calm,Calm,-,N/A,,Clear,0,2012-09-01 12:53:00
8:13 AM,51.8,48.2,88,30.23,10.0,Calm,Calm,-,N/A,,Clear,0,2012-09-01 13:13:00
8:32 AM,57.2,51.8,82,30.23,10.0,Calm,Calm,-,N/A,,Clear,0,2012-09-01 13:32:00
8:53 AM,62.6,50.0,63,30.23,10.0,Calm,Calm,-,N/A,,Clear,0,2012-09-01 13:53:00
9:13 AM,66.2,48.2,52,30.23,10.0,ESE,3.5,-,N/A,,Clear,120,2012-09-01 14:13:00
9:32 AM,69.8,48.2,46,30.22,10.0,ESE,5.8,-,N/A,,Clear,110,2012-09-01 14:32:00
9:53 AM,71.6,46.4,41,30.22,10.0,SE,6.9,-,N/A,,Clear,140,2012-09-01 14:53:00
10:13 AM,73.4,46.4,38,30.22,10.0,SE,5.8,-,N/A,,Clear,130,2012-09-01 15:13:00
10:32 AM,75.2,44.6,34,30.22,10.0,SSE,3.5,-,N/A,,Clear,150,2012-09-01 15:32:00
10:53 AM,75.2,42.8,31,30.22,10.0,South,4.6,-,N/A,,Clear,170,2012-09-01 15:53:00
11:13 AM,77.0,42.8,29,30.21,10.0,SSE,5.8,-,N/A,,Clear,160,2012-09-01 16:13:00
11:32 AM,78.8,42.8,28,30.21,10.0,SE,6.9,-,N/A,,Clear,130,2012-09-01 16:32:00
11:53 AM,78.8,42.8,28,30.20,10.0,SE,9.2,-,N/A,,Clear,140,2012-09-01 16:53:00
12:12 PM,78.8,41.0,26,30.20,10.0,Calm,Calm,-,N/A,,Clear,0,2012-09-01 17:12:00
12:33 PM,78.8,42.8,28,30.19,10.0,SSE,12.7,17.3,N/A,,Clear,160,2012-09-01 17:33:00
12:53 PM,80.6,42.8,26,30.18,10.0,SE,9.2,-,N/A,,Clear,140,2012-09-01 17:53:00
1:12 PM,80.6,41.0,24,30.18,10.0,SE,10.4,-,N/A,,Clear,140,2012-09-01 18:12:00
1:33 PM,80.6,39.2,23,30.17,10.0,SE,9.2,17.3,N/A,,Clear,140,2012-09-01 18:33:00
1:53 PM,80.6,39.2,23,30.17,10.0,ESE,5.8,9.2,N/A,,Clear,120,2012-09-01 18:53:00
2:12 PM,82.4,39.2,21,30.16,10.0,ESE,12.7,17.3,N/A,,Clear,120,2012-09-01 19:12:00
2:33 PM,82.4,39.2,21,30.16,10.0,SE,11.5,18.4,N/A,,Clear,140,2012-09-01 19:33:00
2:53 PM,82.4,39.2,21,30.15,10.0,SSE,11.5,18.4,N/A,,Clear,150,2012-09-01 19:53:00
3:12 PM,82.4,39.2,21,30.14,10.0,SE,8.1,17.3,N/A,,Clear,130,2012-09-01 20:12:00
3:33 PM,80.6,39.2,23,30.13,10.0,ESE,11.5,-,N/A,,Clear,120,2012-09-01 20:33:00
3:53 PM,80.6,39.2,23,30.14,10.0,SSE,8.1,18.4,N/A,,Clear,150,2012-09-01 20:53:00
4:12 PM,80.6,39.2,23,30.14,10.0,SSE,11.5,17.3,N/A,,Clear,160,2012-09-01 21:12:00
4:33 PM,78.8,39.2,24,30.13,10.0,SE,12.7,-,N/A,,Clear,140,2012-09-01 21:33:00
4:52 PM,78.8,39.2,24,30.13,10.0,SE,10.4,-,N/A,,Clear,130,2012-09-01 21:52:00
5:12 PM,75.2,41.0,29,30.13,10.0,SSE,10.4,-,N/A,,Clear,150,2012-09-01 22:12:00
5:33 PM,77.0,41.0,28,30.13,10.0,SSE,13.8,-,N/A,,Clear,150,2012-09-01 22:33:00
5:52 PM,75.2,41.0,29,30.13,10.0,SSE,10.4,17.3,N/A,,Clear,150,2012-09-01 22:52:00
6:12 PM,73.4,41.0,31,30.12,10.0,SE,8.1,-,N/A,,Clear,140,2012-09-01 23:12:00
6:33 PM,73.4,42.8,33,30.12,10.0,SE,9.2,-,N/A,,Clear,140,2012-09-01 23:33:00
6:53 PM,71.6,42.8,35,30.12,10.0,SE,6.9,-,N/A,,Clear,140,2012-09-01 23:53:00
7:12 PM,69.8,44.6,40,30.12,10.0,SE,4.6,-,N/A,,Clear,130,2012-09-02 00:12:00
7:33 PM,66.2,44.6,46,30.11,10.0,SE,6.9,-,N/A,,Clear,130,2012-09-02 00:33:00
7:53 PM,68.0,42.8,40,30.11,10.0,Calm,Calm,-,N/A,,Clear,0,2012-09-02 00:53:00
8:12 PM,64.4,44.6,49,30.11,10.0,Calm,Calm,-,N/A,,Clear,0,2012-09-02 01:12:00
8:33 PM,60.8,46.4,59,30.11,10.0,East,3.5,-,N/A,,Clear,90,2012-09-02 01:33:00
8:52 PM,60.8,44.6,55,30.11,10.0,ESE,3.5,-,N/A,,Clear,120,2012-09-02 01:52:00
9:13 PM,62.6,44.6,52,30.11,10.0,East,4.6,-,N/A,,Clear,100,2012-09-02 02:13:00
9:33 PM,60.8,44.6,55,30.11,10.0,East,4.6,-,N/A,,Clear,100,2012-09-02 02:33:00
9:52 PM,57.2,44.6,63,30.11,10.0,SE,4.6,-,N/A,,Clear,130,2012-09-02 02:52:00
10:13 PM,59.0,44.6,59,30.10,10.0,SE,4.6,-,N/A,,Clear,130,2012-09-02 03:13:00
10:33 PM,57.2,44.6,63,30.09,10.0,SE,5.8,-,N/A,,Clear,140,2012-09-02 03:33:00
10:52 PM,59.0,44.6,59,30.08,10.0,SE,6.9,-,N/A,,Clear,130,2012-09-02 03:52:00
11:13 PM,57.2,44.6,63,30.08,10.0,SE,5.8,-,N/A,,Clear,130,2012-09-02 04:13:00
11:33 PM,57.2,44.6,63,30.08,10.0,ESE,5.8,-,N/A,,Clear,120,2012-09-02 04:33:00
11:53 PM,57.2,44.6,63,30.08,10.0,ESE,4.6,-,N/A,,Clear,120,2012-09-02 04:53:00